#timestamp,LO_Frequency,Hit,StdDev 
1606839595.1,286047021.4,P
1606839615.9,286047021.9,P
1606839635.7,286047020.8,P
1606839655.5,286047020.7,Y
1606839675.4,286047002.5,P
1606839695.2,286047001.7,N
1606839715.1,286047002.8,N
1606839716.0,286047002.8,N
1606839735.8,286047000.2,N
1606839755.6,286047004.0,N
1606839775.5,286047003.9,N
1606839795.3,286047001.5,N
1606839815.1,286047002.2,N
1606839835.9,286047000.8,N
1606839855.7,286046999.4,N
1606839875.6,286046997.9,N
1606839895.4,286046998.9,N
1606839915.2,286046998.3,N
1606839935.1,286047000.7,N
1606839936.0,286047000.7,N
1606839955.8,286047000.6,N
1606839975.7,286046996.5,N
1606839995.5,286046997.4,N
1606840015.3,286046998.7,N
1606840035.2,286046999.0,N
1606840055.0,286046998.9,N
1606840055.9,286046998.9,N
1606840075.8,286047001.0,N
1606840095.6,286046999.4,N
1606840115.4,286047000.4,N
1606840135.3,286047000.7,N
1606840155.1,286046997.0,N
1606840175.8,286046999.0,N
1606840195.7,286046996.5,N
1606840215.5,286046997.5,N
1606840235.4,286046999.6,N
1606840255.2,286046999.5,N
1606840275.0,286046997.0,N
1606840275.9,286046997.0,N
1606840295.8,286046997.8,N
1606840315.6,286046998.0,N
1606840335.4,286046995.4,Y
1606840355.3,286046997.0,P
1606840375.1,286046997.2,N
1606840395.9,286046998.0,N
1606840415.7,286046999.2,N
1606840435.5,286047000.4,N
1606840455.4,286047002.2,N
1606840475.2,286047001.7,N
1606840495.0,286047003.7,N
1606840495.9,286047003.7,N
1606840515.8,286047003.3,N
1606840535.6,286047006.0,N
1606840555.5,286047003.5,N
1606840575.3,286047003.2,N
1606840595.1,286047004.4,N
1606840615.9,286047004.4,N
1606840635.7,286047004.3,N
1606840655.5,286047004.3,N
1606840675.4,286047002.4,N
1606840695.2,286047001.1,N
1606840715.1,286047000.1,N
1606840716.0,286047000.1,N
1606840735.8,286047002.4,N
1606840755.6,286047004.1,N
1606840805.5,286047003.8,E
1606840815.4,286047001.9,N
1606840835.3,286047001.9,P
1606840855.1,286047002.2,P
1606840856.0,286047002.2,Y
1606840875.8,286046996.8,P
1606840895.7,286046994.9,N
1606840915.5,286046995.4,N
1606840935.4,286046994.9,N
1606840955.2,286046995.4,N
1606840975.0,286046993.7,N
1606840975.9,286046993.7,N
1606840995.8,286046991.9,Y
1606841015.6,286046996.4,P
1606841035.4,286046991.9,P
1606841055.3,286046992.4,P
1606841075.1,286046992.3,Y
1606841095.9,286047001.0,P
1606841115.7,286047000.3,N
1606841135.5,286047001.2,N
1606841155.4,286046999.6,N
1606841175.2,286046999.3,N
1606841195.0,286046999.6,N
1606841195.9,286046999.6,N
1606841215.8,286046998.6,N
1606841235.6,286047000.0,N
1606841255.5,286047002.4,N
1606841275.3,286047004.4,N
1606841295.1,286047005.6,N
1606841315.9,286047005.8,N
1606841335.7,286047006.2,N
1606841355.5,286047005.2,N
1606841375.4,286047003.7,N
1606841395.2,286047003.2,N
1606841415.1,286047005.2,N
1606841416.0,286047005.2,N
1606841435.8,286047004.1,N
1606841455.6,286047003.4,N
1606841475.5,286047005.4,N
1606841495.3,286047003.3,N
1606841515.1,286047005.7,N
1606841535.9,286047003.2,N
1606841555.7,286047004.1,N
1606841575.6,286047001.6,N
1606841595.4,286046999.8,N
1606841615.2,286047000.5,N
1606841635.1,286047000.2,N
1606841636.0,286047000.2,N
1606841655.8,286047000.0,N
1606841675.6,286047001.6,N
1606841695.5,286047001.7,N
1606841715.3,286046999.7,N
1606841735.2,286047002.1,N
1606841755.9,286047001.7,N
1606841775.7,286047002.4,N
1606841795.6,286047002.8,N
1606841815.4,286047002.8,N
1606841835.3,286047000.6,N
1606841855.1,286047002.4,N
1606841856.0,286047002.4,N
1606841875.8,286046999.9,N
1606841895.7,286046996.5,N
1606841915.5,286046996.5,N
1606841935.3,286046999.0,N
1606841955.2,286046998.9,N
1606841975.0,286046999.3,N
1606841975.9,286046999.3,N
1606841995.8,286046996.9,N
